Location: Caltech
(34.1382°N, 118.1253°W)
Time: 03:19:43
(UTC-07:00)

Iridium 72 - Visible Passes

Search period start: 28 April 2015 00:00
Search period end: 08 May 2015 00:00
Orbit: 776 x 779 km, 86.4° (Epoch: 27 April)

Date Brightness Start Highest point End Pass type
(mag) Time Alt. Az. Time Alt. Az. Time Alt. Az.
28 Apr 7.4 23:16:07 25° N 23:16:07 25° N 23:18:12 10° N visible
29 Apr 7.3 22:42:25 23° NNE 22:42:25 23° NNE 22:44:28 10° NNE visible
30 Apr 8.2 00:22:52 13° NW 00:22:52 13° NW 00:23:43 10° NW visible
30 Apr 7.5 22:08:43 16° NE 22:08:43 16° NE 22:10:15 10° NNE visible
30 Apr 7.7 23:49:10 21° NW 23:49:10 21° NW 23:51:19 10° NNW visible
01 May 7.1 23:15:27 31° NNW 23:15:27 31° NNW 23:18:14 10° N visible
02 May 6.7 22:41:43 35° NNE 22:41:43 35° NNE 22:44:44 10° N visible
03 May 6.9 22:07:58 27° NE 22:07:58 27° NE 22:10:49 10° NNE visible
03 May 7.8 23:48:24 19° NW 23:48:24 19° NW 23:50:51 10° NNW visible
04 May 7.3 21:34:12 16° ENE 21:34:12 16° ENE 21:36:18 10° NE visible
04 May 7.0 23:14:38 34° NW 23:14:38 34° NW 23:18:06 10° NNW visible
05 May 6.1 22:40:51 53° N 22:40:51 53° N 22:44:50 10° N visible
06 May 6.0 22:07:03 45° NE 22:07:03 45° NE 22:11:11 10° NNE visible
06 May 8.0 23:47:30 14° WNW 23:47:30 14° WNW 23:49:56 10° NW visible
07 May 6.7 21:33:14 26° ENE 21:33:14 26° ENE 21:37:04 10° NNE visible
07 May 7.2 23:13:41 28° WNW 23:13:41 28° WNW 23:17:47 10° NNW visible
